[[{"header":{"parameterUnit":"m.s-1","parameterCategory":1,"la1":30.2992,"la2":30.254,"lo1":-89.0895,"lo2":-89.0443,"dy":0.0025,"dx":0.0025,"nx":19,"ny":19,"refTime":"2026-04-23T09:00:00:Z","depth":0,"parameterNumber":2,"parameterNumberName":"U-component_of_WINDS"},"data":[0,0,0,-2.599,-2.5992,-2.6102,-2.6103,-2.6242,-2.6243,0,0,0,0,0,0,0,0,0,0,0,-2.5956,-2.5957,-2.5989,-2.5992,-2.6102,-2.6103,-2.6242,-2.6243,0,0,0,0,0,0,0,0,0,0,0,-2.5956,-2.5957,-2.5958,-2.5993,-2.6102,-2.6103,-2.6241,-2.6159,0,0,0,0,0,0,0,0,0,0,-2.6052,-2.602,-2.5956,-2.5958,-2.5993,-2.6102,-2.6103,-2.6155,-2.6164,-2.6192,0,-2.6215,0,-2.6231,-2.6252,-2.6253,0,0,0,-2.5993,-2.6013,-2.6043,-2.5958,-2.5994,-2.6102,-2.6053,-2.616,-2.617,-2.6204,-2.6217,-2.6223,-2.6234,-2.6253,-2.6254,-2.6407,-2.6408,0,0,-2.5987,-2.5975,-2.6036,-2.605,-2.6032,-2.6049,-2.6056,-2.6166,-2.6181,-2.6218,-2.6226,-2.6236,-2.6254,-2.6255,-2.6407,-2.6407,0,0,0,-2.5969,-2.5971,-2.5999,-2.6044,-2.6064,-2.6052,-2.606,-2.6176,-2.6186,-2.6227,-2.6238,-2.6255,-2.6257,-2.6406,-2.6407,-2.6428,0,0,0,-2.5965,-2.5961,-2.5996,-2.599,-2.6062,-2.6121,-2.6067,-2.6178,-2.6191,-2.6237,-2.6255,-2.6258,-2.6405,-2.6406,-2.6426,-2.6439,0,0,0,-2.5949,-2.5959,-2.5974,-2.5989,-2.6036,-2.612,-2.6136,-2.6181,-2.6197,-2.6253,-2.6258,-2.6405,-2.6406,-2.6424,-2.6436,-2.6475,0,0,0,-2.5929,-2.5992,-2.5974,-2.6049,-2.6035,-2.6132,-2.6136,-2.6208,-2.6259,-2.6256,-2.6405,-2.6407,-2.6423,-2.6434,-2.6473,-2.6505,-2.6518,0,0,-2.6002,-2.6,-2.6045,-2.6033,-2.6129,-2.6116,-2.6216,-2.6274,-2.629,-2.6367,-2.6371,-2.6426,-2.6436,-2.6475,-2.6594,-2.6603,0,0,0,-2.6065,-2.6096,-2.6125,-2.6172,-2.6217,-2.6256,-2.63,-2.6321,-2.6387,-2.6327,-2.6452,-2.6458,-2.6481,-2.6497,-2.6505,-2.6526,-2.6414,-2.6414,-2.6414,-2.6151,-2.6168,-2.6243,-2.6273,-2.6319,-2.6362,-2.6401,-2.6437,-2.6442,-2.6471,-2.6494,-2.6564,-2.6582,-2.6588,-2.6609,-2.6513,-2.6513,-2.6513,-2.6513,-2.6259,-2.6307,-2.631,-2.6384,-2.6402,-2.6465,-2.6509,-2.651,-2.6571,-2.6548,-2.6569,-2.6542,-2.6598,-2.6617,-2.6515,-2.6515,-2.6514,-2.6514,-2.6514,-2.6317,-2.6343,-2.6367,-2.6436,-2.6487,-2.6516,-2.6574,-2.6588,-2.6602,-2.6624,-2.6648,-2.6648,-2.6649,-2.6635,-2.6635,-2.6635,-2.6635,-2.6636,-2.6636,-2.6367,-2.6394,-2.644,-2.6493,-2.6524,-2.6567,-2.6612,-2.6644,-2.6682,-2.6688,-2.6689,-2.669,-2.6601,-2.6577,-2.6639,-2.6639,-2.6638,-2.6638,-2.6638,-2.6469,-2.6448,-2.6519,-2.6551,-2.6613,-2.6662,-2.668,-2.6743,-2.6772,-2.68,-2.6796,-2.6729,-2.6728,-2.6722,-2.6702,-2.6793,-2.6793,-2.6793,-2.6793,-2.6517,-2.6518,-2.6593,-2.6642,-2.6692,-2.6715,-2.6796,-2.6831,-2.6864,-2.6882,-2.6872,-2.6848,-2.6841,-2.6844,-2.6835,-2.6817,-2.6935,-2.6935,-2.6936,-2.6579,-2.6586,-2.6651,-2.6682,-2.6732,-2.6774,-2.685,-2.6906,-2.694,-2.6942,-2.6897,-2.6891,-2.6853,-2.684,-2.6839,-2.6825,-2.6792,0,0]},{"header":{"parameterUnit":"m.s-1","parameterCategory":1,"la1":30.2992,"la2":30.254,"lo1":-89.0895,"lo2":-89.0443,"dy":0.0025,"dx":0.0025,"nx":19,"ny":19,"refTime":"2026-04-23T09:00:00:Z","depth":0,"parameterNumber":3,"parameterNumberName":"V-component_of_WINDS"},"data":[0,0,0,4.616,4.6161,4.6212,4.6212,4.6293,4.6294,0,0,0,0,0,0,0,0,0,0,0,4.6156,4.6157,4.616,4.6161,4.6212,4.6212,4.6293,4.6294,0,0,0,0,0,0,0,0,0,0,0,4.6156,4.6157,4.6158,4.6161,4.6212,4.6212,4.6293,4.6248,0,0,0,0,0,0,0,0,0,0,4.6196,4.6205,4.6157,4.6158,4.6162,4.6212,4.6212,4.6246,4.6251,4.6278,0,4.6307,0,4.6302,4.6301,4.6301,0,0,0,4.6152,4.6201,4.6204,4.6159,4.6162,4.6212,4.6186,4.6249,4.6255,4.6285,4.6308,4.631,4.6303,4.6302,4.6302,4.6491,4.6492,0,0,4.6149,4.6172,4.62,4.6209,4.6204,4.6185,4.6188,4.6252,4.6277,4.6308,4.6312,4.6305,4.6302,4.6303,4.6489,4.6491,0,0,0,4.6147,4.617,4.6171,4.6206,4.6214,4.6186,4.619,4.6274,4.6273,4.6313,4.6306,4.6303,4.6304,4.6488,4.649,4.6575,0,0,0,4.6145,4.6169,4.617,4.6185,4.6213,4.6245,4.6212,4.6269,4.6275,4.6305,4.6303,4.6305,4.6486,4.6489,4.6569,4.661,0,0,0,4.6149,4.6169,4.6181,4.6186,4.6208,4.6244,4.6245,4.6269,4.6272,4.6301,4.6305,4.6486,4.6489,4.6564,4.6602,4.6664,0,0,0,4.6159,4.6256,4.6183,4.6288,4.6208,4.6297,4.6245,4.631,4.6346,4.6303,4.6487,4.649,4.6563,4.6597,4.6659,4.6718,4.6746,0,0,4.6294,4.6273,4.6333,4.6269,4.6376,4.6288,4.6407,4.6418,4.6401,4.6461,4.6466,4.6571,4.6601,4.6663,4.6899,4.6921,0,0,0,4.6383,4.6426,4.645,4.6486,4.6498,4.6511,4.6502,4.6506,4.6557,4.6437,4.6611,4.6629,4.6664,4.6691,4.671,4.6737,4.6504,4.6504,4.6504,4.6603,4.6576,4.6673,4.6652,4.6688,4.6678,4.6703,4.6707,4.6669,4.6711,4.6727,4.6874,4.6907,4.6921,4.695,4.6759,4.676,4.676,4.676,4.6795,4.685,4.6799,4.6874,4.6844,4.6907,4.6901,4.6872,4.6925,4.6859,4.6889,4.6817,4.6946,4.6969,4.6766,4.6765,4.6764,4.6764,4.6763,4.6933,4.6954,4.6959,4.7007,4.7048,4.7023,4.7076,4.7048,4.7022,4.7051,4.7064,4.7062,4.7055,4.706,4.7061,4.7061,4.7062,4.7062,4.7062,4.7073,4.7075,4.7124,4.7145,4.7164,4.7185,4.7177,4.7194,4.7205,4.718,4.718,4.7136,4.6965,4.692,4.707,4.7068,4.7068,4.7067,4.7066,4.7271,4.7222,4.7297,4.7316,4.7337,4.7378,4.7343,4.738,4.739,4.7417,4.7368,4.7247,4.7223,4.7208,4.717,4.7375,4.7375,4.7375,4.7375,4.7385,4.7371,4.744,4.7472,4.75,4.7476,4.7559,4.7554,4.754,4.7544,4.7512,4.7461,4.7447,4.7431,4.7411,4.7375,4.7628,4.7628,4.7629,4.7504,4.7492,4.7568,4.7555,4.757,4.7584,4.766,4.7697,4.7672,4.7638,4.7546,4.7536,4.7454,4.7429,4.7389,4.7359,4.7293,0,0]}]]